Time,TemperatureF,DewpointF,PressureIn,WindDirection,WindDirectionDegrees,WindSpeedMPH,WindSpeedGustMPH,Humidity,HourlyPrecipIn,Conditions,Clouds,dailyrainin,SoftwareType,DateUTC
2013-03-07 00:02:00,34.0,29.0,29.92,NE,53,5.0,12.0,83,0.00,,,0.00,,2013-03-07 05:02:00,
2013-03-07 00:12:00,34.0,29.0,29.92,NE,53,5.0,12.0,83,0.00,,,0.00,,2013-03-07 05:12:00,
2013-03-07 00:22:00,34.0,29.0,29.90,NE,52,12.0,14.0,83,0.00,,,0.00,,2013-03-07 05:22:00,
2013-03-07 00:32:00,34.0,29.0,29.91,East,79,11.0,11.0,83,0.00,,,0.00,,2013-03-07 05:32:00,
2013-03-07 00:42:00,34.0,29.0,29.91,East,79,11.0,11.0,83,0.00,,,0.00,,2013-03-07 05:42:00,
2013-03-07 00:52:00,34.0,29.0,29.92,NE,45,7.0,10.0,82,0.00,,,0.00,,2013-03-07 05:52:00,
2013-03-07 01:01:00,34.0,29.0,29.92,NE,45,6.0,9.0,82,0.00,,,0.00,,2013-03-07 06:01:00,
2013-03-07 01:11:00,34.0,29.0,29.92,NE,45,6.0,9.0,82,0.00,,,0.00,,2013-03-07 06:11:00,
2013-03-07 01:21:00,33.0,29.0,29.92,NE,54,7.0,13.0,84,0.00,,,0.00,,2013-03-07 06:21:00,
2013-03-07 01:32:00,33.0,29.0,29.91,NE,45,8.0,12.0,85,0.00,,,0.00,,2013-03-07 06:32:00,
2013-03-07 01:42:00,32.0,28.0,29.91,ENE,61,11.0,14.0,86,0.00,,,0.00,,2013-03-07 06:42:00,
2013-03-07 01:52:00,32.0,28.0,29.91,ENE,61,11.0,14.0,86,0.00,,,0.00,,2013-03-07 06:52:00,
2013-03-07 02:01:00,32.0,28.0,29.90,NE,45,10.0,14.0,86,0.00,,,0.00,,2013-03-07 07:01:00,
2013-03-07 02:11:00,32.0,28.0,29.90,NE,45,10.0,14.0,86,0.00,,,0.00,,2013-03-07 07:11:00,
2013-03-07 02:21:00,32.0,28.0,29.90,NE,50,6.0,9.0,86,0.00,,,0.00,,2013-03-07 07:21:00,
2013-03-07 02:32:00,32.0,28.0,29.90,NE,52,6.0,11.0,86,0.00,,,0.00,,2013-03-07 07:32:00,
2013-03-07 02:43:00,32.0,28.0,29.90,NE,52,6.0,11.0,86,0.00,,,0.00,,2013-03-07 07:43:00,
2013-03-07 02:53:00,32.0,28.0,29.90,NE,45,6.0,11.0,86,0.00,,,0.00,,2013-03-07 07:53:00,
2013-03-07 03:03:00,32.0,29.0,29.89,NNE,29,7.0,14.0,87,0.00,,,0.00,,2013-03-07 08:03:00,
2013-03-07 03:12:00,32.0,29.0,29.89,NNE,29,7.0,14.0,87,0.00,,,0.00,,2013-03-07 08:12:00,
2013-03-07 03:23:00,32.0,28.0,29.90,NE,45,11.0,13.0,86,0.00,,,0.00,,2013-03-07 08:23:00,
2013-03-07 03:33:00,32.0,28.0,29.90,NE,45,7.0,13.0,86,0.00,,,0.00,,2013-03-07 08:33:00,
2013-03-07 03:44:00,32.0,28.0,29.90,NE,45,7.0,13.0,86,0.00,,,0.00,,2013-03-07 08:44:00,
2013-03-07 03:54:00,32.0,28.0,29.90,NE,36,6.0,16.0,86,0.00,,,0.00,,2013-03-07 08:54:00,
2013-03-07 04:03:00,32.0,28.0,29.90,NE,45,7.0,15.0,85,0.00,,,0.00,,2013-03-07 09:03:00,
2013-03-07 04:13:00,32.0,28.0,29.90,NE,45,7.0,15.0,85,0.00,,,0.00,,2013-03-07 09:13:00,
2013-03-07 04:23:00,32.0,28.0,29.89,NE,45,6.0,9.0,85,0.00,,,0.00,,2013-03-07 09:23:00,
2013-03-07 04:33:00,32.0,28.0,29.89,NE,55,9.0,13.0,85,0.00,,,0.00,,2013-03-07 09:33:00,
2013-03-07 04:43:00,32.0,28.0,29.89,NE,55,9.0,13.0,85,0.00,,,0.00,,2013-03-07 09:43:00,
2013-03-07 04:52:00,32.0,28.0,29.90,NE,45,11.0,13.0,85,0.00,,,0.00,,2013-03-07 09:52:00,
2013-03-07 05:03:00,32.0,28.0,29.89,NE,43,7.0,11.0,85,0.00,,,0.00,,2013-03-07 10:03:00,
2013-03-07 05:13:00,32.0,28.0,29.89,NE,43,7.0,11.0,85,0.00,,,0.00,,2013-03-07 10:13:00,
2013-03-07 05:23:00,32.0,28.0,29.90,NE,40,12.0,17.0,85,0.00,,,0.00,,2013-03-07 10:23:00,
2013-03-07 05:33:00,32.0,28.0,29.90,NE,45,8.0,14.0,84,0.00,,,0.00,,2013-03-07 10:33:00,
2013-03-07 05:42:00,32.0,28.0,29.90,NE,45,8.0,14.0,84,0.00,,,0.00,,2013-03-07 10:42:00,
2013-03-07 05:53:00,31.0,27.0,29.90,NE,39,7.0,15.0,84,0.00,,,0.00,,2013-03-07 10:53:00,
2013-03-07 06:03:00,31.0,27.0,29.91,NNE,32,8.0,17.0,84,0.00,,,0.00,,2013-03-07 11:03:00,
2013-03-07 06:12:00,31.0,27.0,29.91,NNE,32,8.0,17.0,84,0.00,,,0.00,,2013-03-07 11:12:00,
2013-03-07 06:23:00,31.0,27.0,29.91,ENE,77,14.0,17.0,84,0.00,,,0.00,,2013-03-07 11:23:00,
2013-03-07 06:33:00,31.0,27.0,29.91,NE,45,7.0,10.0,84,0.00,,,0.00,,2013-03-07 11:33:00,
2013-03-07 06:43:00,31.0,27.0,29.91,NE,45,7.0,10.0,84,0.00,,,0.00,,2013-03-07 11:43:00,
2013-03-07 06:54:00,31.0,27.0,29.92,NE,39,6.0,11.0,84,0.00,,,0.00,,2013-03-07 11:54:00,
2013-03-07 07:03:00,31.0,27.0,29.91,NE,41,11.0,15.0,84,0.00,,,0.00,,2013-03-07 12:03:00,
2013-03-07 07:12:00,31.0,27.0,29.91,NE,41,11.0,15.0,84,0.00,,,0.00,,2013-03-07 12:12:00,
2013-03-07 07:23:00,31.0,27.0,29.92,ENE,62,9.0,11.0,84,0.00,,,0.00,,2013-03-07 12:23:00,
2013-03-07 07:33:00,31.0,27.0,29.92,NNE,28,7.0,11.0,84,0.00,,,0.00,,2013-03-07 12:33:00,
2013-03-07 07:43:00,31.0,27.0,29.92,NNE,28,7.0,11.0,84,0.00,,,0.00,,2013-03-07 12:43:00,
2013-03-07 07:53:00,31.0,26.0,29.92,NE,37,11.0,14.0,83,0.00,,,0.00,,2013-03-07 12:53:00,
2013-03-07 08:03:00,31.0,26.0,29.92,NE,45,10.0,14.0,82,0.00,,,0.00,,2013-03-07 13:03:00,
2013-03-07 08:12:00,31.0,26.0,29.92,NE,45,10.0,14.0,82,0.00,,,0.00,,2013-03-07 13:12:00,
2013-03-07 08:23:00,31.0,26.0,29.92,NE,44,7.0,11.0,82,0.00,,,0.00,,2013-03-07 13:23:00,
2013-03-07 08:32:00,32.0,27.0,29.92,NE,54,9.0,16.0,81,0.00,,,0.00,,2013-03-07 13:32:00,
2013-03-07 08:42:00,32.0,27.0,29.92,NE,54,9.0,16.0,81,0.00,,,0.00,,2013-03-07 13:42:00,
2013-03-07 08:53:00,32.0,27.0,29.92,NE,45,6.0,17.0,80,0.00,,,0.00,,2013-03-07 13:53:00,
2013-03-07 09:02:00,32.0,27.0,29.92,NE,41,9.0,11.0,80,0.00,,,0.00,,2013-03-07 14:02:00,
2013-03-07 09:12:00,32.0,27.0,29.92,NE,41,9.0,11.0,80,0.00,,,0.00,,2013-03-07 14:12:00,
2013-03-07 09:23:00,33.0,27.0,29.91,NE,38,8.0,15.0,79,0.00,,,0.00,,2013-03-07 14:23:00,
2013-03-07 09:33:00,33.0,27.0,29.91,NE,42,5.0,16.0,78,0.00,,,0.00,,2013-03-07 14:33:00,
2013-03-07 09:42:00,33.0,27.0,29.91,NE,42,5.0,16.0,78,0.00,,,0.00,,2013-03-07 14:42:00,
2013-03-07 09:54:00,34.0,28.0,29.91,NE,43,11.0,16.0,77,0.00,,,0.00,,2013-03-07 14:54:00,
2013-03-07 10:03:00,35.0,28.0,29.91,NE,38,9.0,15.0,76,0.00,,,0.00,,2013-03-07 15:03:00,
2013-03-07 10:12:00,35.0,28.0,29.91,NE,38,9.0,15.0,76,0.00,,,0.00,,2013-03-07 15:12:00,
2013-03-07 10:23:00,36.0,29.0,29.91,NE,45,10.0,12.0,75,0.00,,,0.00,,2013-03-07 15:23:00,
2013-03-07 10:32:00,36.0,29.0,29.90,NNE,30,8.0,17.0,74,0.00,,,0.00,,2013-03-07 15:32:00,
2013-03-07 10:42:00,36.0,29.0,29.90,NNE,30,8.0,17.0,74,0.00,,,0.00,,2013-03-07 15:42:00,
2013-03-07 10:53:00,37.0,29.0,29.91,NE,50,8.0,13.0,74,0.00,,,0.00,,2013-03-07 15:53:00,
2013-03-07 11:02:00,38.0,30.0,29.92,NE,45,6.0,18.0,72,0.00,,,0.00,,2013-03-07 16:02:00,
2013-03-07 11:13:00,38.0,30.0,29.92,NE,45,6.0,18.0,72,0.00,,,0.00,,2013-03-07 16:13:00,
2013-03-07 11:23:00,38.0,29.0,29.92,NE,45,7.0,18.0,71,0.00,,,0.00,,2013-03-07 16:23:00,
2013-03-07 11:33:00,38.0,29.0,29.92,NE,35,10.0,14.0,71,0.00,,,0.00,,2013-03-07 16:33:00,
2013-03-07 11:43:00,38.0,29.0,29.92,NE,35,10.0,14.0,71,0.00,,,0.00,,2013-03-07 16:43:00,
2013-03-07 11:53:00,39.0,30.0,29.93,NE,36,10.0,15.0,70,0.00,,,0.00,,2013-03-07 16:53:00,
2013-03-07 12:02:00,38.0,29.0,29.93,NE,46,10.0,13.0,71,0.00,,,0.00,,2013-03-07 17:02:00,
2013-03-07 12:12:00,38.0,29.0,29.93,NE,46,10.0,13.0,71,0.00,,,0.00,,2013-03-07 17:12:00,
2013-03-07 12:22:00,39.0,30.0,29.93,NE,45,9.0,18.0,70,0.00,,,0.00,,2013-03-07 17:22:00,
2013-03-07 12:43:00,39.0,30.0,29.93,NE,45,8.0,11.0,70,0.00,,,0.00,,2013-03-07 17:43:00,
2013-03-07 12:54:00,39.0,30.0,29.92,NE,52,10.0,11.0,70,0.00,,,0.00,,2013-03-07 17:54:00,
2013-03-07 13:04:00,39.0,30.0,29.93,NNE,33,5.0,12.0,70,0.00,,,0.00,,2013-03-07 18:04:00,
2013-03-07 13:12:00,39.0,30.0,29.93,NNE,33,5.0,12.0,70,0.00,,,0.00,,2013-03-07 18:12:00,
2013-03-07 13:22:00,38.0,29.0,29.92,NE,34,8.0,12.0,70,0.00,,,0.00,,2013-03-07 18:22:00,
2013-03-07 13:32:00,38.0,29.0,29.92,ENE,64,8.0,19.0,70,0.00,,,0.00,,2013-03-07 18:32:00,
2013-03-07 13:42:00,38.0,29.0,29.92,ENE,64,8.0,19.0,70,0.00,,,0.00,,2013-03-07 18:42:00,
2013-03-07 13:53:00,38.0,29.0,29.92,ENE,66,5.0,12.0,71,0.00,,,0.00,,2013-03-07 18:53:00,
2013-03-07 14:03:00,38.0,29.0,29.92,NE,52,12.0,17.0,70,0.00,,,0.00,,2013-03-07 19:03:00,
2013-03-07 14:12:00,38.0,29.0,29.92,NE,39,7.0,19.0,69,0.00,,,0.00,,2013-03-07 19:12:00,
2013-03-07 14:23:00,38.0,29.0,29.92,NE,39,7.0,19.0,69,0.00,,,0.00,,2013-03-07 19:23:00,
2013-03-07 14:35:00,39.0,30.0,29.92,NE,37,9.0,15.0,69,0.00,,,0.00,,2013-03-07 19:35:00,
2013-03-07 14:43:00,39.0,30.0,29.92,NE,37,9.0,15.0,69,0.00,,,0.00,,2013-03-07 19:43:00,
2013-03-07 14:53:00,39.0,30.0,29.92,NNE,33,10.0,15.0,69,0.00,,,0.00,,2013-03-07 19:53:00,
2013-03-07 15:02:00,39.0,29.0,29.92,NE,45,9.0,16.0,68,0.00,,,0.00,,2013-03-07 20:02:00,
2013-03-07 15:13:00,39.0,29.0,29.92,NE,45,9.0,16.0,68,0.00,,,0.00,,2013-03-07 20:13:00,
2013-03-07 15:22:00,38.0,29.0,29.92,NE,40,8.0,16.0,69,0.00,,,0.00,,2013-03-07 20:22:00,
2013-03-07 15:33:00,37.0,28.0,29.93,NE,35,7.0,9.0,70,0.00,,,0.00,,2013-03-07 20:33:00,
2013-03-07 15:43:00,37.0,28.0,29.93,NE,35,7.0,9.0,70,0.00,,,0.00,,2013-03-07 20:43:00,
2013-03-07 15:54:00,37.0,28.0,29.93,NNE,32,8.0,13.0,70,0.00,,,0.00,,2013-03-07 20:54:00,
2013-03-07 16:03:00,36.0,28.0,29.93,NE,45,9.0,15.0,72,0.00,,,0.00,,2013-03-07 21:03:00,
2013-03-07 16:12:00,36.0,28.0,29.93,NE,45,9.0,15.0,72,0.00,,,0.00,,2013-03-07 21:12:00,
2013-03-07 16:23:00,35.0,27.0,29.93,NE,54,6.0,15.0,73,0.00,,,0.00,,2013-03-07 21:23:00,
2013-03-07 16:33:00,35.0,28.0,29.94,NE,35,9.0,14.0,74,0.00,,,0.00,,2013-03-07 21:33:00,
2013-03-07 16:43:00,35.0,28.0,29.94,NE,35,9.0,14.0,74,0.00,,,0.00,,2013-03-07 21:43:00,
2013-03-07 16:53:00,34.0,27.0,29.94,NE,53,10.0,14.0,76,0.00,,,0.00,,2013-03-07 21:53:00,
2013-03-07 17:02:00,34.0,28.0,29.95,NE,37,6.0,11.0,79,0.00,,,0.00,,2013-03-07 22:02:00,
2013-03-07 17:12:00,34.0,28.0,29.95,NE,37,6.0,11.0,79,0.00,,,0.00,,2013-03-07 22:12:00,
2013-03-07 17:22:00,33.0,28.0,29.95,NE,35,7.0,10.0,81,0.00,,,0.00,,2013-03-07 22:22:00,
2013-03-07 17:32:00,32.0,27.0,29.95,NNE,32,10.0,13.0,83,0.00,,,0.00,,2013-03-07 22:32:00,
2013-03-07 17:43:00,32.0,27.0,29.95,NNE,32,10.0,13.0,83,0.00,,,0.00,,2013-03-07 22:43:00,
2013-03-07 17:54:00,32.0,28.0,29.95,NNE,31,6.0,10.0,84,0.00,,,0.00,,2013-03-07 22:54:00,
2013-03-07 18:13:00,32.0,28.0,29.94,NE,38,8.0,10.0,84,0.00,,,0.00,,2013-03-07 23:13:00,
2013-03-07 18:22:00,31.0,27.0,29.95,NE,45,8.0,10.0,85,0.00,,,0.00,,2013-03-07 23:22:00,
2013-03-07 18:33:00,31.0,27.0,29.95,NE,38,8.0,11.0,85,0.00,,,0.00,,2013-03-07 23:33:00,
2013-03-07 18:43:00,31.0,27.0,29.95,NE,38,8.0,11.0,85,0.00,,,0.00,,2013-03-07 23:43:00,
2013-03-07 18:54:00,31.0,27.0,29.95,NE,40,6.0,10.0,86,0.00,,,0.00,,2013-03-07 23:54:00,
2013-03-07 19:04:00,31.0,27.0,29.96,NE,45,6.0,15.0,86,0.00,,,0.00,,2013-03-08 00:04:00,
2013-03-07 19:13:00,31.0,27.0,29.96,NE,45,6.0,15.0,86,0.00,,,0.00,,2013-03-08 00:13:00,
2013-03-07 19:23:00,31.0,27.0,29.95,NE,45,6.0,11.0,86,0.00,,,0.00,,2013-03-08 00:23:00,
2013-03-07 19:34:00,31.0,27.0,29.95,NE,45,8.0,11.0,86,0.00,,,0.00,,2013-03-08 00:34:00,
2013-03-07 19:43:00,31.0,27.0,29.95,NE,45,8.0,11.0,86,0.00,,,0.00,,2013-03-08 00:43:00,
2013-03-07 19:54:00,31.0,27.0,29.95,NE,38,10.0,12.0,86,0.00,,,0.00,,2013-03-08 00:54:00,
2013-03-07 20:02:00,31.0,27.0,29.95,NNE,32,7.0,9.0,86,0.00,,,0.00,,2013-03-08 01:02:00,
2013-03-07 20:11:00,31.0,27.0,29.95,NNE,32,7.0,9.0,86,0.00,,,0.00,,2013-03-08 01:11:00,
2013-03-07 20:22:00,31.0,27.0,29.95,NE,52,8.0,10.0,86,0.00,,,0.00,,2013-03-08 01:22:00,
2013-03-07 20:33:00,31.0,27.0,29.95,NE,45,7.0,12.0,86,0.00,,,0.00,,2013-03-08 01:33:00,
2013-03-07 20:42:00,31.0,27.0,29.95,NE,45,7.0,12.0,86,0.00,,,0.00,,2013-03-08 01:42:00,
2013-03-07 20:52:00,30.0,26.0,29.95,NE,44,7.0,9.0,86,0.00,,,0.00,,2013-03-08 01:52:00,
2013-03-07 21:01:00,30.0,26.0,29.95,NE,40,5.0,9.0,86,0.00,,,0.00,,2013-03-08 02:01:00,
2013-03-07 21:12:00,30.0,26.0,29.95,NNE,32,9.0,11.0,86,0.00,,,0.00,,2013-03-08 02:12:00,
2013-03-07 21:22:00,30.0,26.0,29.95,NNE,32,9.0,11.0,86,0.00,,,0.00,,2013-03-08 02:22:00,
2013-03-07 21:32:00,30.0,26.0,29.94,NE,45,7.0,11.0,85,0.00,,,0.00,,2013-03-08 02:32:00,
2013-03-07 21:42:00,30.0,26.0,29.94,NE,45,7.0,11.0,85,0.00,,,0.00,,2013-03-08 02:42:00,
2013-03-07 21:53:00,31.0,27.0,29.94,NE,41,7.0,10.0,84,0.00,,,0.00,,2013-03-08 02:53:00,
2013-03-07 22:02:00,31.0,27.0,29.93,NE,55,7.0,13.0,84,0.00,,,0.00,,2013-03-08 03:02:00,
2013-03-07 22:12:00,31.0,27.0,29.93,NE,55,7.0,13.0,84,0.00,,,0.00,,2013-03-08 03:12:00,
2013-03-07 22:22:00,31.0,27.0,29.93,NE,49,5.0,8.0,84,0.00,,,0.00,,2013-03-08 03:22:00,
2013-03-07 22:32:00,31.0,27.0,29.93,NNE,23,7.0,9.0,84,0.00,,,0.00,,2013-03-08 03:32:00,
2013-03-07 22:53:00,31.0,26.0,29.93,NE,39,8.0,10.0,83,0.00,,,0.00,,2013-03-08 03:53:00,
2013-03-07 23:02:00,31.0,26.0,29.93,NNE,29,8.0,10.0,83,0.00,,,0.00,,2013-03-08 04:02:00,
2013-03-07 23:11:00,31.0,26.0,29.93,NNE,29,8.0,10.0,83,0.00,,,0.00,,2013-03-08 04:11:00,
2013-03-07 23:22:00,30.0,25.0,29.92,NE,37,8.0,10.0,83,0.00,,,0.00,,2013-03-08 04:22:00,
2013-03-07 23:32:00,30.0,26.0,29.92,NE,36,5.0,9.0,84,0.00,,,0.00,,2013-03-08 04:32:00,
2013-03-07 23:42:00,30.0,26.0,29.92,NE,36,5.0,9.0,84,0.00,,,0.00,,2013-03-08 04:42:00,
2013-03-07 23:52:00,30.0,26.0,29.92,NE,45,7.0,10.0,85,0.00,,,0.00,,2013-03-08 04:52:00,